OpenBCM V2.0.2 (Linux)

Packet Radio Mailbox

IZ3LSV

[San Dona' di P. JN]

 Login: GUEST





  
CX2SA  > KEP      31.05.08 06:27l 77 Lines 3127 Bytes #999 (0) @ WW
BID : ARLK041
Read: GUEST
Subj: ARLK041 Keplerian data
Path: IZ3LSV<I0TVL<VK2TGB<VK2IO<VK2XGJ<VK2DOT<CX2SA
Sent: 080530/2256Z @:CX2SA.LAV.URY.SA #:6890 [Minas] FBB7.00e $:ARLK041
From: CX2SA@CX2SA.LAV.URY.SA
To  : KEP@ARL


ZCZC SK41
QST de W1AW  
Keplerian Bulletin 41  ARLK041
From ARRL Headquarters
Newington, CT  May 30, 2008
To all radio amateurs 

SB KEP ARL ARLK041
ARLK041 Keplerian data

Special thanks to AMSAT-NA (AMSAT.ORG) for the following Keplerian
data.

Decode 2-line elsets with the following key:
1 AAAAAU 00  0  0 BBBBB.BBBBBBBB  .CCCCCCCC  00000-0  00000-0 0  DDDZ
2 AAAAA EEE.EEEE FFF.FFFF GGGGGGG HHH.HHHH III.IIII JJ.JJJJJJJJKKKKKZ
KEY: A-CATALOGNUM B-EPOCHTIME C-DECAY D-ELSETNUM E-INCLINATION F-RAAN
G-ECCENTRICITY H-ARGPERIGEE I-MNANOM J-MNMOTION K-ORBITNUM Z-CHECKSUM

AO-07
1 07530U 74089B   08150.61885963 -.00000027  00000-0  10000-3 0  1887
2 07530 101.4667 182.7365 0011706 299.2651 060.7249 12.53573812534651
UO-11
1 14781U 84021B   08151.26512544  .00000292  00000-0  46139-4 0  6829
2 14781 098.1541 185.0297 0009943 127.3725 232.8399 14.79645505301203
AO-16
1 20439U 90005D   08151.46035934  .00000008  00000-0  18182-4 0  3324
2 20439 098.2286 132.4300 0010002 227.7416 132.2927 14.31794633958380
AO-27
1 22825U 93061C   08150.92877272 -.00000052  00000-0 -38065-5 0  9802
2 22825 098.3824 111.6364 0007999 321.1731 038.8890 14.29239492765165
IO-26
1 22826U 93061D   08150.49602327  .00000007  00000-0  19003-4 0  6852
2 22826 098.3752 112.1379 0008517 318.5120 041.5430 14.29488437765196
PO-28
1 22829U 93061G   08150.91145024  .00000036  00000-0  29989-4 0  9565
2 22829 098.3628 113.6449 0008871 286.9893 073.0327 14.30190024765518
FO-29
1 24278U 96046B   08151.37246024 -.00000076  00000-0 -37730-4 0  7820
2 24278 098.5865 069.9896 0349681 261.6532 094.4824 13.52937390581983
GO-32
1 25397U 98043D   08150.76040425  .00000045  00000-0  38061-4 0  6103
2 25397 098.3644 186.8325 0000574 342.3042 017.8111 14.23144052513597
ISS
1 25544U 98067A   08151.18707176  .00008555  00000-0  56554-4 0  5697
2 25544 051.6368 109.1888 0005356 279.0029 265.9528 15.76553779545684
MO-46
1 26548U 00057D   08151.50250242 -.00000007  00000-0  17272-4 0  1119
2 26548 064.5571 184.9963 0027955 326.6051 033.3302 14.83263953415194
AO-40
1 26609U 00072B   08150.49822899 -.00000012  00000-0  10000-3 0   659
2 26609 007.5720 080.3723 7913033 086.0507 350.7631 01.25584685 34805
NO-44
1 26931U 01043C   08151.51479416  .00000020  00000-0  40003-4 0  8904
2 26931 067.0529 330.1835 0006491 276.4050 083.6346 14.29523805347888
SO-50
1 27607U 02058C   08150.38322532  .00000053  00000-0  30274-4 0  6141
2 27607 064.5577 110.7464 0085199 283.0222 076.1380 14.71358427292204
CO-55
1 27844U 03031E   08151.05364554  .00000034  00000-0  35891-4 0  3169
2 27844 098.7145 159.5723 0009937 162.9670 197.1823 14.20581110254861
AO-51
1 28375U 04025K   08150.57343983  .00000018  00000-0  18260-4 0  1118
2 28375 098.0719 176.1901 0082945 209.1181 150.5373 14.40608882205727
VO-52
1 28650U 05017B   08150.69718230  .00000396  00000-0  56922-4 0  9428
2 28650 097.7894 217.8140 0026833 198.6937 161.3306 14.81468722165864

Keplerian bulletins are transmitted twice weekly from W1AW.  The
next scheduled transmission of these data will be Tuesday, June 3,
2008, at 2230z on Baudot and AMTOR.
NNNN


Read previous mail | Read next mail


 05.05.2026 05:05:01lGo back Go up